Aérodrome :
LOGIN :

S'inscrire | Disclaimer

   EN    FR    IT 

 










Légende :    VFR   VFR Marginal   IFR   IFR Intensif   IFR Très Intensif
Visi : 
Plafond : 
>= 8 km
>= 3000ft
5 à 8 km
1000 à 3000 ft
1500m à 5 km
500 à 1000 ft
800 à 1500m
200 à 500 ft
< 800m
< 200 ft
Symboles :   Orages  Brouillard  Fortes neiges  Fortes précipitations  Vent > 20 kt
SIGMETs :   Divers  Orages  Givrage  Turbulence  Onde Orograph.  Cendres Volcan.






- Altitude de l'aérodrome : 0 ft


ENOA - Oseberg A Platform

DERNIER METAR :
  • 101050Z 17015KT CAVOK 07/00 Q1027 W///S4

METARs EXPIRÉS :
  • 101020Z 18015KT CAVOK 06/00 Q1027 W///S4
  • 100950Z 16012KT CAVOK 06/00 Q1027 W///S4
  • 100920Z 16012KT CAVOK 06/00 Q1027 W///S4
  • 100850Z 16012KT 9999 FEW025 OVC100 06/00 Q1027 W///S4
  • 100820Z 17009KT 9999 FEW023 BKN100 06/00 Q1027 W///S4

TAF ENOA
Valide du 10 à 09h jusqu'au 11 à 09h UTC


1009/1109 19015KT 9999 FEW020 BKN060
BECMG 1012/1014 18025KT
PROB40
TEMPO 1013/1021 4000 -RADZ BKN014
BECMG 1021/1023 BKN012
TEMPO 1021/1109 4000 RADZ BKN008



MET'MAP, la Météo Aéronautique d'un coup d'oeil ! - Copyright ORBIFLY Décembre 2007 - Disclaimer

ORBIFLY MET'MAP TEAM :

Programmation & Développement : Alexandra Zaïnal
Sur une idée originale de : Baudouin d'Aumeries
Assistance à la programmation : Marc-Olivier Méhu
Soutien technique & logistique : Manuel Goepfert

Contact : metmap@orbifly.com




SOURCES & CREDITS :

   NOAA